This demonstration page uses our WeatherBlox Daily Observations layout. Learn more.

Left ArrowRight Arrow

Hourly Observations for May 20, 2021

Temp ( °F °C ) Dew Point ( °F °C ) Humidity (%) Winds ( mph kmh ) Pressure ( in mb ) Visibility ( mi km ) Precip ( " mm )
12:53 am 00:53 Cloudy 47 8.3 35 1.7 63 63 NE 20 31 29.97 1015 10 16 0.00 0.00
1:53 am 01:53 Cloudy 46 7.8 34 1.1 63 63 NE 18 30 29.95 1014 10 16 0.00 0.00
2:53 am 02:53 Cloudy 46 7.8 34 1.1 63 63 ENE 20 31 29.96 1015 10 16 0.00 0.00
3:22 am 03:22 Cloudy 45 7 36 2 71 71 ENE 24 39 29.96 1014 10 16 0.00 0.00
3:53 am 03:53 Cloudy 45 7.2 34 1.1 66 66 ENE 23 37 29.94 1014 10 16 0.00 0.00
4:01 am 04:01 Cloudy 45 7.2 34 1.1 66 66 ENE 22 35 29.96 1014 10 16 0.00 0.00
4:53 am 04:53 Cloudy 45 7.2 32 0 61 61 ENE 21 33 29.95 1014 10 16 0.00 0.00
5:53 am 05:53 Cloudy 43 6.1 35 1.7 74 74 NE 10 17 29.98 1015 10 16 0.02 0.51
6:53 am 06:53 Cloudy with Light Rain 40 4.4 35 1.7 83 83 ENE 16 26 29.98 1015 7 11 0.02 0.51
7:53 am 07:53 Cloudy with Light Rain 38 3.3 36 2.2 93 93 NE 12 19 30.03 1017 9 14 0.02 0.51
8:22 am 08:22 Cloudy with Rain 38 3.3 36 2.2 93 93 NNE 13 20 30.05 1017 3 4 0.06 1.52
8:25 am 08:25 Cloudy with Rain 37 2.8 35 1.7 93 93 NNE 14 22 30.06 1018 3 5 0.06 1.52
8:32 am 08:32 Cloudy with Rain 36 2.2 34 1.1 93 93 NNE 18 30 30.07 1018 4 6 0.07 1.78
8:43 am 08:43 Cloudy with Light Snow 35 1.7 33 0.6 93 93 NNE 17 28 30.06 1018 3 4 0.09 2.29
8:53 am 08:53 Cloudy with Light Snow 34 1.1 32 0 92 92 NE 14 22 30.04 1017 2 3 0.10 2.54
9:02 am 09:02 Cloudy with Light Snow 34 1 32 0 93 93 NNE 14 22 30.09 1019 2 2 0.00 0.00
9:05 am 09:05 Cloudy with Light Snow 33 0.6 32 0 96 96 NNE 16 26 30.09 1019 1 2 0.02 0.51
9:14 am 09:14 Mostly Cloudy with Snow 33 0.6 32 0 96 96 NNE 14 22 30.08 1019 1 1 0.04 1.02
9:53 am 09:53 Mostly Cloudy with Snow 33 0.6 31 -0.6 92 92 NNE 17 28 30.05 1018 1 1 0.11 2.79
10:01 am 10:01 Mostly Cloudy with Heavy Snow 33 0.6 31 -0.6 92 92 NE 20 31 30.10 1019 0 0 0.01 0.25
10:53 am 10:53 Mostly Cloudy with Heavy Snow 33 0.6 32 0 96 96 NE 18 30 30.08 1019 0 0 0.13 3.30
11:07 am 11:07 Mostly Cloudy with Snow 33 0.6 32 0 96 96 NE 17 28 30.12 1020 1 1 0.02 0.51
11:24 am 11:24 Cloudy with Light Snow 33 0.6 32 0 96 96 NE 16 26 30.11 1020 2 2 0.03 0.76
11:32 am 11:32 Cloudy with Light Snow 33 0.6 32 0 96 96 NE 16 26 30.12 1020 3 5 0.03 0.76
11:46 am 11:46 Cloudy with Mist and Fog 33 0.6 31 -0.6 92 92 ENE 16 26 30.12 1020 4 6 0.03 0.76
11:53 am 11:53 Cloudy with Mist and Fog 33 0.6 31 -0.6 92 92 ENE 16 26 30.09 1019 4 6 0.03 0.76
12:09 pm 12:09 Cloudy with Light Snow 33 0.6 31 -0.6 92 92 ENE 16 26 30.13 1020 3 5 0.00 0.00
12:17 pm 12:17 Cloudy with Light Snow 33 0.6 31 -0.6 92 92 ENE 15 24 30.12 1020 2 3 0.01 0.25
12:26 pm 12:26 Cloudy with Light Snow 33 0.6 31 -0.6 92 92 ENE 16 26 30.13 1020 1 2 0.02 0.51
12:33 pm 12:33 Cloudy with Light Snow 33 0.6 31 -0.6 92 92 ENE 16 26 30.13 1020 1 1 0.03 0.76
12:44 pm 12:44 Mostly Cloudy with Heavy Snow 33 0.6 31 -0.6 92 92 ENE 14 22 30.13 1020 0 0 0.05 1.27
12:53 pm 12:53 Mostly Cloudy with Snow 32 0 31 -0.6 96 96 ENE 14 22 30.09 1019 0 0 0.06 1.52
1:16 pm 13:16 Cloudy with Light Snow 34 1 30 -1 87 87 ENE 17 28 30.12 1020 1 1 0.00 0.00
1:21 pm 13:21 Cloudy with Light Snow 33 0.6 31 -0.6 92 92 ENE 14 22 30.13 1020 2 2 0.04 1.02
1:43 pm 13:43 Cloudy with Mist and Fog 33 0.6 31 -0.6 92 92 ENE 22 35 30.12 1020 3 4 0.05 1.27
1:53 pm 13:53 Cloudy with Light Snow 33 0.6 31 -0.6 92 92 E 18 30 30.08 1019 2 3 0.05 1.27
2:09 pm 14:09 Windy with Snow Likely 32 0 30 -1.1 92 92 E 22 35 30.14 1021 3 5 0.01 0.25
2:53 pm 14:53 Cloudy with Light Wintry Mix 32 0 30 -1.1 92 92 ENE 16 26 30.11 1020 3 4 0.02 0.51
3:21 pm 15:21 Cloudy with Mist and Fog 32 0 30 -1.1 92 92 ENE 18 30 30.17 1022 3 5 0.01 0.25
3:53 pm 15:53 Cloudy with Mist and Fog 32 0 30 -1.1 92 92 NE 15 24 30.13 1020 3 5 0.01 0.25
3:59 pm 15:59 Cloudy with Mist and Fog 32 0 30 -1.1 92 92 NE 15 24 30.18 1022 3 4 0.00 0.00
4:13 pm 16:13 Cloudy with Mist and Fog 32 0 30 -1.1 92 92 NE 14 22 30.19 1022 3 5 0.00 0.00
4:21 pm 16:21 Cloudy with Mist and Fog 32 0 30 -1.1 92 92 NNE 14 22 30.19 1022 3 5 0.00 0.00
4:32 pm 16:32 Cloudy with Mist and Fog 32 0 30 -1.1 92 92 NNE 13 20 30.20 1023 4 6 0.00 0.00
4:53 pm 16:53 Cloudy with Mist and Fog 32 0 29 -1.7 88 88 NNE 16 26 30.15 1021 4 6 0.00 0.00
5:15 pm 17:15 Cloudy with Mist and Fog 32 0 29 -1.7 88 88 NNE 16 26 30.19 1022 3 5 0.00 0.00
5:34 pm 17:34 Cloudy with Mist and Fog 32 0 29 -1.7 88 88 NNE 16 26 30.20 1023 3 4 0.00 0.00
5:46 pm 17:46 Cloudy with Mist and Fog 32 0 30 -1.1 92 92 NNE 16 26 30.21 1023 2 2 0.00 0.00
5:53 pm 17:53 Cloudy with Mist and Fog 32 0 29 -1.7 88 88 NNE 15 24 30.17 1022 2 3 0.00 0.00
6:12 pm 18:12 Cloudy with Mist and Fog 32 0 29 -1.7 88 88 NNE 12 19 30.23 1024 4 6 0.00 0.00
6:44 pm 18:44 Cloudy with Light Snow 31 -0.6 29 -1.7 92 92 N 12 19 30.23 1024 2 3 0.00 0.00
6:53 pm 18:53 Cloudy with Light Snow 31 -0.6 29 -1.7 92 92 N 12 19 30.19 1023 2 2 0.00 0.00
7:02 pm 19:02 Cloudy with Light Snow 31 -0.6 29 -1.7 92 92 N 12 19 30.24 1024 1 2 0.00 0.00
7:16 pm 19:16 Cloudy with Light Snow 31 -0.6 29 -1.7 92 92 N 10 17 30.24 1024 2 3 0.00 0.00
7:23 pm 19:23 Cloudy with Light Snow 31 -0.6 29 -1.7 92 92 N 14 22 30.24 1024 3 4 0.00 0.00
7:45 pm 19:45 Cloudy with Light Snow 31 -0.6 29 -1.7 92 92 N 10 17 30.25 1024 2 3 0.02 0.51
7:53 pm 19:53 Cloudy with Light Snow 31 -0.6 29 -1.7 92 92 NNE 12 19 30.21 1023 2 3 0.02 0.51
8:00 pm 20:00 Cloudy with Light Snow 31 -0.6 29 -1.7 92 92 N 15 24 30.25 1024 2 2 0.00 0.00
8:26 pm 20:26 Cloudy with Light Snow 31 -0.6 29 -1.7 92 92 N 14 22 30.26 1025 2 3 0.01 0.25
8:53 pm 20:53 Cloudy with Light Snow 31 -0.6 28 -2.2 89 89 N 10 17 30.23 1024 3 5 0.01 0.25
8:57 pm 20:57 Cloudy with Light Snow 31 -0.6 28 -2.2 89 89 N 13 20 30.27 1025 3 4 0.01 0.25
9:07 pm 21:07 Cloudy with Light Snow 31 -0.6 28 -2.2 89 89 N 12 19 30.29 1026 1 2 0.01 0.25
9:20 pm 21:20 Cloudy with Light Snow 30 -1 28 -2 93 93 N 13 20 30.27 1025 1 2 0.00 0.00
9:41 pm 21:41 Cloudy with Light Snow 30 -1.1 28 -2.2 92 92 N 10 17 30.28 1025 2 2 0.04 1.02
9:53 pm 21:53 Cloudy with Light Snow 30 -1.1 29 -1.7 96 96 N 8 13 30.27 1025 2 2 0.04 1.02
10:00 pm 22:00 Cloudy with Light Snow 30 -1.1 29 -1.7 96 96 N 7 11 30.30 1026 2 3 0.01 0.25
10:08 pm 22:08 Cloudy with Light Snow 30 -1.1 29 -1.7 96 96 NNE 10 17 30.30 1026 2 3 0.01 0.25
10:29 pm 22:29 Cloudy with Light Snow 30 -1.1 28 -2.2 92 92 NNE 10 17 30.30 1026 2 3 0.02 0.51
10:44 pm 22:44 Cloudy with Light Snow 30 -1.1 28 -2.2 92 92 NNE 8 13 30.30 1026 3 5 0.02 0.51
10:53 pm 22:53 Cloudy with Light Snow 30 -1.1 28 -2.2 92 92 N 7 11 30.28 1025 5 8 0.02 0.51
11:28 pm 23:28 Cloudy 30 -1.1 28 -2.2 92 92 NNE 6 9 30.31 1027 10 16 0.00 0.00
11:53 pm 23:53 Cloudy 31 -0.6 28 -2.2 89 89 NNE 6 9 30.28 1025 10 16 0.00 0.00

Powered by AerisWeather